This is the latest recevied weather packets stored in our database for station/object K8RLH. If no packets are shown the sender has not sent any weather packets the latest 10 day(s).
| Time | Temp. | Humidity | Pressure | Rain* | Wind** | Luminosity | Snow |
|---|---|---|---|---|---|---|---|
| 1777913418 | 21.67° C | 36% | 1018.8 hPa | 0 mm | - | 266 W/m² | - |
| 1777913115 | 21.67° C | 38% | 1019 hPa | 0 mm | - | 132 W/m² | - |
| 1777912811 | 21.67° C | 37% | 1019 hPa | 0 mm | - | 197 W/m² | - |
| 1777912507 | 22.22° C | 38% | 1019.1 hPa | 0 mm | - | 75 W/m² | - |
| 1777912204 | 21.11° C | 39% | 1019.2 hPa | 0 mm | - | 80 W/m² | - |
| 1777911900 | 21.67° C | 37% | 1019.4 hPa | 0 mm | - | 165 W/m² | - |
| 1777911596 | 22.22° C | 38% | 1019.3 hPa | 0 mm | - | 60 W/m² | - |
| 1777911292 | 22.22° C | 39% | 1019.4 hPa | 0 mm | - | 92 W/m² | - |
| 1777910990 | 21.67° C | 39% | 1019.6 hPa | 0 mm | - | 65 W/m² | - |
| 1777910688 | 21.67° C | 38% | 1019.5 hPa | 0 mm | - | 154 W/m² | - |
| 1777910384 | 22.22° C | 37% | 1019.5 hPa | 0 mm | - | 76 W/m² | - |
| 1777910081 | 22.22° C | 37% | 1019.6 hPa | 0 mm | - | 55 W/m² | - |
| 1777909778 | 21.67° C | 38% | 1019.6 hPa | 0 mm | - | 69 W/m² | - |
| 1777909475 | 21.11° C | 42% | 1019.7 hPa | 0 mm | - | 155 W/m² | - |
| 1777909173 | 21.67° C | 40% | 1019.8 hPa | 0 mm | - | 447 W/m² | - |
| 1777908870 | 21.67° C | 41% | 1019.7 hPa | 0 mm | - | 492 W/m² | - |
| 1777908568 | 21.11° C | 41% | 1019.6 hPa | 0 mm | - | 170 W/m² | - |
| 1777908264 | 21.11° C | 41% | 1019.8 hPa | 0 mm | - | 140 W/m² | - |
| 1777907960 | 21.11° C | 41% | 1019.7 hPa | 0 mm | - | 353 W/m² | - |
| 1777907656 | 20° C | 43% | 1019.8 hPa | 0 mm | - | 264 W/m² | - |
| 1777907352 | 19.44° C | 46% | 1019.6 hPa | 0 mm | - | 224 W/m² | - |
| 1777907049 | 19.44° C | 46% | 1019.7 hPa | 0 mm | - | 196 W/m² | - |
| 1777906746 | 19.44° C | 45% | 1019.9 hPa | 0 mm | - | 90 W/m² | - |
| 1777906442 | 20° C | 46% | 1019.9 hPa | 0 mm | - | 115 W/m² | - |
| 1777906139 | 19.44° C | 46% | 1019.8 hPa | 0 mm | - | 105 W/m² | - |
* Rain latest hour (hover to see other rain measurements)
** Current wind speed in m/s (hover to see current wind gust speed)